Back to catalog

STARLINK-37346

AliveCommunicationsVLEO
NORAD 69149·PAYLOAD·🇺🇸 United States

Launched May 21, 2026 from Cape Canaveral Space Force Station

Loading…

Next Passes (next 24 hours)

TLE

FreshSource: CelesTrak SupGP

Epoch: Sep 15, 2026, 03:21 UTC

1 69149C 26111B   26258.14006944 -.00021526  00000+0 -63651-3 0  2580
2 69149  53.1571  91.1161 0001247  83.4649 194.2153 15.34375749    14

Track STARLINK-37346 in real time with AllMySat

Download on the App Store